Location: Dessau
(51.7984°N, 12.2168°E)
Time: 06:56:43
(UTC+01:00)

ISS - Pass Details

Date: 13 November 2017
Orbit: 401 x 407 km, 51.6° (Epoch: 25 November)

Event Time Altitude Azimuth Distance (km) Brightness Sun altitude
Exits shadow 06:35:36 - 266° (W) 1,505 -1.5 -8.1°
Reaches altitude 10° 06:35:45 10° 265° (W) 1,456 -1.6 -8.1°
Maximum altitude 06:38:14 20° 215° (SW) 987 -2.0 -7.7°
Drops below altitude 10° 06:40:43 10° 165° (SSE) 1,450 -0.5 -7.3°
Sets 06:43:07 0° 148° (SSE) 2,306 0.9 -7.0°
